Time,TemperatureF,DewpointF,PressureIn,WindDirection,WindDirectionDegrees,WindSpeedMPH,WindSpeedGustMPH,Humidity,HourlyPrecipIn,Conditions,Clouds,dailyrainin,SoftwareType,DateUTC
2013-08-26 00:08:00,68.1,58.0,30.08,SW,215,2.0,-999.0,69,-99.99,,,0.00,weatherlink.com 1.10,2013-08-26 04:08:00,
2013-08-26 00:23:00,67.8,58.0,30.08,SW,229,0.0,-999.0,70,-99.99,,,0.00,weatherlink.com 1.10,2013-08-26 04:23:00,
2013-08-26 00:38:00,67.3,58.0,30.08,WSW,248,0.0,-999.0,71,-99.99,,,0.00,weatherlink.com 1.10,2013-08-26 04:38:00,
2013-08-26 00:53:00,67.1,57.0,30.08,SSW,195,0.0,-999.0,71,-99.99,,,0.00,weatherlink.com 1.10,2013-08-26 04:53:00,
2013-08-26 01:08:00,66.9,58.0,30.08,South,181,0.0,-999.0,72,-99.99,,,0.00,weatherlink.com 1.10,2013-08-26 05:08:00,
2013-08-26 01:23:00,66.6,57.0,30.07,SW,229,0.0,-999.0,72,-99.99,,,0.00,weatherlink.com 1.10,2013-08-26 05:23:00,
2013-08-26 01:38:00,66.6,58.0,30.06,West,261,0.0,-999.0,73,-99.99,,,0.00,weatherlink.com 1.10,2013-08-26 05:38:00,
2013-08-26 01:53:00,66.1,57.0,30.06,SSW,208,8.0,-999.0,73,-99.99,,,0.00,weatherlink.com 1.10,2013-08-26 05:53:00,
2013-08-26 02:08:00,66.6,57.0,30.04,SSW,200,2.0,-999.0,72,-99.99,,,0.00,weatherlink.com 1.10,2013-08-26 06:08:00,
2013-08-26 02:23:00,66.8,57.0,30.04,WSW,258,7.0,-999.0,71,-99.99,,,0.00,weatherlink.com 1.10,2013-08-26 06:23:00,
2013-08-26 02:38:00,66.8,57.0,30.04,SW,219,0.0,-999.0,72,-99.99,,,0.00,weatherlink.com 1.10,2013-08-26 06:38:00,
2013-08-26 02:53:00,66.4,57.0,30.05,SW,215,0.0,-999.0,72,-99.99,,,0.00,weatherlink.com 1.10,2013-08-26 06:53:00,
2013-08-26 03:08:00,66.4,57.0,30.04,SW,219,1.0,-999.0,72,-99.99,,,0.00,weatherlink.com 1.10,2013-08-26 07:08:00,
2013-08-26 03:23:00,66.4,57.0,30.04,South,181,0.0,-999.0,71,-99.99,,,0.00,weatherlink.com 1.10,2013-08-26 07:23:00,
2013-08-26 03:38:00,66.3,57.0,30.03,WSW,253,0.0,-999.0,71,-99.99,,,0.00,weatherlink.com 1.10,2013-08-26 07:38:00,
2013-08-26 03:53:00,66.3,57.0,30.03,SSW,210,1.0,-999.0,71,-99.99,,,0.00,weatherlink.com 1.10,2013-08-26 07:53:00,
2013-08-26 04:08:00,66.0,56.0,30.04,WSW,244,2.0,-999.0,71,-99.99,,,0.00,weatherlink.com 1.10,2013-08-26 08:08:00,
2013-08-26 04:23:00,65.8,56.0,30.03,WSW,258,6.0,-999.0,71,-99.99,,,0.00,weatherlink.com 1.10,2013-08-26 08:23:00,
2013-08-26 04:38:00,65.5,56.0,30.03,WSW,244,3.0,-999.0,72,-99.99,,,0.00,weatherlink.com 1.10,2013-08-26 08:38:00,
2013-08-26 04:53:00,65.5,56.0,30.02,SSW,198,2.0,-999.0,71,-99.99,,,0.00,weatherlink.com 1.10,2013-08-26 08:53:00,
2013-08-26 05:08:00,65.6,56.0,30.03,SW,224,2.0,-999.0,71,-99.99,,,0.00,weatherlink.com 1.10,2013-08-26 09:08:00,
2013-08-26 05:23:00,65.6,56.0,30.02,SSW,210,5.0,-999.0,71,-99.99,,,0.00,weatherlink.com 1.10,2013-08-26 09:23:00,
2013-08-26 05:38:00,65.5,56.0,30.03,South,189,1.0,-999.0,71,-99.99,,,0.00,weatherlink.com 1.10,2013-08-26 09:38:00,
2013-08-26 05:53:00,65.5,56.0,30.03,SW,227,0.0,-999.0,71,-99.99,,,0.00,weatherlink.com 1.10,2013-08-26 09:53:00,
2013-08-26 06:08:00,65.3,56.0,30.04,WSW,243,3.0,-999.0,72,-99.99,,,0.00,weatherlink.com 1.10,2013-08-26 10:08:00,
2013-08-26 06:23:00,65.0,56.0,30.04,SW,234,0.0,-999.0,73,-99.99,,,0.00,weatherlink.com 1.10,2013-08-26 10:23:00,
2013-08-26 06:38:00,64.7,56.0,30.05,WSW,244,2.0,-999.0,74,-99.99,,,0.00,weatherlink.com 1.10,2013-08-26 10:38:00,
2013-08-26 06:53:00,64.2,57.0,30.06,WSW,257,0.0,-999.0,76,-99.99,,,0.00,weatherlink.com 1.10,2013-08-26 10:53:00,
2013-08-26 07:08:00,64.0,57.0,30.06,WSW,240,0.0,-999.0,77,-99.99,,,0.00,weatherlink.com 1.10,2013-08-26 11:08:00,
2013-08-26 07:23:00,64.0,57.0,30.06,SW,227,2.0,-999.0,78,-99.99,,,0.00,weatherlink.com 1.10,2013-08-26 11:23:00,
2013-08-26 07:38:00,64.5,57.0,30.06,SW,227,0.0,-999.0,77,-99.99,,,0.00,weatherlink.com 1.10,2013-08-26 11:38:00,
2013-08-26 07:53:00,65.6,57.0,30.05,SSW,210,2.0,-999.0,74,-99.99,,,0.00,weatherlink.com 1.10,2013-08-26 11:53:00,
2013-08-26 08:08:00,66.4,58.0,30.05,South,191,1.0,-999.0,73,-99.99,,,0.00,weatherlink.com 1.10,2013-08-26 12:08:00,
2013-08-26 08:23:00,66.9,58.0,30.06,SSW,212,0.0,-999.0,73,-99.99,,,0.00,weatherlink.com 1.10,2013-08-26 12:23:00,
2013-08-26 08:38:00,67.1,58.0,30.06,SW,222,0.0,-999.0,72,-99.99,,,0.00,weatherlink.com 1.10,2013-08-26 12:38:00,
2013-08-26 08:53:00,67.4,58.0,30.06,WSW,243,0.0,-999.0,73,-99.99,,,0.00,weatherlink.com 1.10,2013-08-26 12:53:00,
2013-08-26 09:08:00,67.9,59.0,30.05,SW,222,0.0,-999.0,73,-99.99,,,0.00,weatherlink.com 1.10,2013-08-26 13:08:00,
2013-08-26 09:23:00,68.6,60.0,30.05,SSW,193,3.0,-999.0,73,-99.99,,,0.00,weatherlink.com 1.10,2013-08-26 13:23:00,
2013-08-26 09:38:00,69.3,60.0,30.04,South,191,0.0,-999.0,72,-99.99,,,0.00,weatherlink.com 1.10,2013-08-26 13:38:00,
2013-08-26 09:53:00,69.9,60.0,30.05,SSW,210,2.0,-999.0,71,-99.99,,,0.00,weatherlink.com 1.10,2013-08-26 13:53:00,
2013-08-26 10:08:00,70.8,61.0,30.04,South,176,0.0,-999.0,71,-99.99,,,0.00,weatherlink.com 1.10,2013-08-26 14:08:00,
2013-08-26 10:23:00,71.1,61.0,30.04,WSW,240,0.0,-999.0,71,-99.99,,,0.00,weatherlink.com 1.10,2013-08-26 14:23:00,
2013-08-26 10:38:00,71.8,62.0,30.04,SW,236,6.0,-999.0,71,-99.99,,,0.00,weatherlink.com 1.10,2013-08-26 14:38:00,
2013-08-26 10:53:00,73.3,62.0,30.03,SW,222,1.0,-999.0,67,-99.99,,,0.00,weatherlink.com 1.10,2013-08-26 14:53:00,
2013-08-26 11:08:00,74.6,62.0,30.03,SSW,203,0.0,-999.0,66,-99.99,,,0.00,weatherlink.com 1.10,2013-08-26 15:08:00,
2013-08-26 11:23:00,74.7,63.0,30.03,WSW,256,0.0,-999.0,66,-99.99,,,0.00,weatherlink.com 1.10,2013-08-26 15:23:00,
2013-08-26 11:38:00,75.3,63.0,30.03,SSW,209,0.0,-999.0,66,-99.99,,,0.00,weatherlink.com 1.10,2013-08-26 15:38:00,
2013-08-26 11:53:00,76.7,63.0,30.01,West,265,5.0,-999.0,62,-99.99,,,0.00,weatherlink.com 1.10,2013-08-26 15:53:00,
2013-08-26 12:08:00,77.6,63.0,30.00,WSW,237,7.0,-999.0,60,-99.99,,,0.00,weatherlink.com 1.10,2013-08-26 16:08:00,
2013-08-26 12:23:00,79.2,64.0,29.99,SW,226,3.0,-999.0,59,-99.99,,,0.00,weatherlink.com 1.10,2013-08-26 16:23:00,
2013-08-26 12:38:00,80.1,63.0,29.99,WSW,244,6.0,-999.0,57,-99.99,,,0.00,weatherlink.com 1.10,2013-08-26 16:38:00,
2013-08-26 12:53:00,81.1,63.0,29.97,SW,223,2.0,-999.0,54,-99.99,,,0.00,weatherlink.com 1.10,2013-08-26 16:53:00,
2013-08-26 13:08:00,81.6,64.0,29.95,WSW,248,7.0,-999.0,56,-99.99,,,0.00,weatherlink.com 1.10,2013-08-26 17:08:00,
2013-08-26 13:23:00,80.7,63.0,29.95,WSW,257,1.0,-999.0,56,-99.99,,,0.00,weatherlink.com 1.10,2013-08-26 17:23:00,
2013-08-26 13:38:00,80.1,64.0,29.95,West,277,0.0,-999.0,58,-99.99,,,0.00,weatherlink.com 1.10,2013-08-26 17:38:00,
2013-08-26 13:53:00,79.6,64.0,29.95,WSW,251,0.0,-999.0,59,-99.99,,,0.00,weatherlink.com 1.10,2013-08-26 17:53:00,
2013-08-26 14:08:00,80.3,64.0,29.94,SW,234,7.0,-999.0,58,-99.99,,,0.00,weatherlink.com 1.10,2013-08-26 18:08:00,
2013-08-26 14:23:00,79.8,64.0,29.94,WSW,257,2.0,-999.0,59,-99.99,,,0.00,weatherlink.com 1.10,2013-08-26 18:23:00,
2013-08-26 14:38:00,82.4,65.0,29.93,SSW,193,1.0,-999.0,56,-99.99,,,0.00,weatherlink.com 1.10,2013-08-26 18:38:00,
2013-08-26 14:53:00,82.2,64.0,29.93,NW,306,1.0,-999.0,54,-99.99,,,0.00,weatherlink.com 1.10,2013-08-26 18:53:00,
2013-08-26 15:08:00,83.0,64.0,29.93,SW,215,2.0,-999.0,53,-99.99,,,0.00,weatherlink.com 1.10,2013-08-26 19:08:00,
2013-08-26 15:23:00,83.0,64.0,29.92,SW,233,6.0,-999.0,52,-99.99,,,0.00,weatherlink.com 1.10,2013-08-26 19:23:00,
2013-08-26 15:38:00,83.2,64.0,29.90,WSW,247,8.0,-999.0,52,-99.99,,,0.00,weatherlink.com 1.10,2013-08-26 19:38:00,
2013-08-26 15:53:00,83.2,62.0,29.88,SSW,206,1.0,-999.0,49,-99.99,,,0.00,weatherlink.com 1.10,2013-08-26 19:53:00,
2013-08-26 16:08:00,82.2,62.0,29.88,SW,215,11.0,-999.0,51,-99.99,,,0.00,weatherlink.com 1.10,2013-08-26 20:08:00,
2013-08-26 16:23:00,82.4,62.0,29.87,SSW,209,0.0,-999.0,50,-99.99,,,0.00,weatherlink.com 1.10,2013-08-26 20:23:00,
2013-08-26 16:38:00,82.6,61.0,29.86,SSW,205,0.0,-999.0,49,-99.99,,,0.00,weatherlink.com 1.10,2013-08-26 20:38:00,
2013-08-26 16:53:00,83.0,63.0,29.86,SW,226,7.0,-999.0,51,-99.99,,,0.00,weatherlink.com 1.10,2013-08-26 20:53:00,
2013-08-26 17:08:00,82.6,61.0,29.87,West,260,6.0,-999.0,49,-99.99,,,0.00,weatherlink.com 1.10,2013-08-26 21:08:00,
2013-08-26 17:23:00,82.8,63.0,29.87,SW,215,3.0,-999.0,52,-99.99,,,0.00,weatherlink.com 1.10,2013-08-26 21:23:00,
2013-08-26 17:38:00,82.2,63.0,29.86,South,176,10.0,-999.0,52,-99.99,,,0.00,weatherlink.com 1.10,2013-08-26 21:38:00,
2013-08-26 17:53:00,80.5,63.0,29.85,SSW,213,6.0,-999.0,56,-99.99,,,0.00,weatherlink.com 1.10,2013-08-26 21:53:00,
2013-08-26 18:08:00,81.1,63.0,29.86,SSW,195,6.0,-999.0,55,-99.99,,,0.00,weatherlink.com 1.10,2013-08-26 22:08:00,
2013-08-26 18:23:00,80.1,64.0,29.84,SW,233,1.0,-999.0,58,-99.99,,,0.00,weatherlink.com 1.10,2013-08-26 22:23:00,
2013-08-26 18:38:00,78.8,63.0,29.86,SW,222,2.0,-999.0,58,-99.99,,,0.00,weatherlink.com 1.10,2013-08-26 22:38:00,
2013-08-26 18:53:00,78.1,62.0,29.88,WSW,239,0.0,-999.0,59,-99.99,,,0.00,weatherlink.com 1.10,2013-08-26 22:53:00,
2013-08-26 19:08:00,76.7,67.0,29.91,NW,305,1.0,-999.0,71,-99.99,,,0.02,weatherlink.com 1.10,2013-08-26 23:08:00,
2013-08-26 19:23:00,73.0,67.0,29.93,NW,322,0.0,-999.0,82,-99.99,,,0.12,weatherlink.com 1.10,2013-08-26 23:23:00,
2013-08-26 19:38:00,70.8,67.0,29.92,NW,322,0.0,-999.0,86,-99.99,,,0.29,weatherlink.com 1.10,2013-08-26 23:38:00,
2013-08-26 19:53:00,69.8,67.0,29.92,SW,234,6.0,-999.0,89,-99.99,,,0.33,weatherlink.com 1.10,2013-08-26 23:53:00,
2013-08-26 20:08:00,68.9,66.0,29.91,SSW,206,0.0,-999.0,89,-99.99,,,0.34,weatherlink.com 1.10,2013-08-27 00:08:00,
2013-08-26 20:23:00,68.9,66.0,29.89,SSW,206,0.0,-999.0,89,-99.99,,,0.34,weatherlink.com 1.10,2013-08-27 00:23:00,
2013-08-26 20:38:00,-999.0,-99.9,29.90,North,-999,-999.0,-999.0,-999,-99.99,,,0.34,weatherlink.com 1.10,2013-08-27 00:38:00,
2013-08-26 20:53:00,-999.0,-99.9,29.90,North,-999,-999.0,-999.0,-999,-99.99,,,0.34,weatherlink.com 1.10,2013-08-27 00:53:00,
2013-08-26 21:08:00,-999.0,-99.9,29.90,North,-999,-999.0,-999.0,-999,-99.99,,,0.34,weatherlink.com 1.10,2013-08-27 01:08:00,
2013-08-26 21:23:00,-999.0,-99.9,29.90,North,-999,-999.0,-999.0,-999,-99.99,,,0.34,weatherlink.com 1.10,2013-08-27 01:23:00,
2013-08-26 21:38:00,-999.0,-99.9,29.89,North,-999,-999.0,-999.0,-999,-99.99,,,0.34,weatherlink.com 1.10,2013-08-27 01:38:00,
2013-08-26 21:53:00,-999.0,-99.9,29.88,North,-999,-999.0,-999.0,-999,-99.99,,,0.34,weatherlink.com 1.10,2013-08-27 01:53:00,
2013-08-26 22:08:00,67.6,-99.9,29.88,SW,215,0.0,-999.0,-999,-99.99,,,0.34,weatherlink.com 1.10,2013-08-27 02:08:00,
2013-08-26 22:23:00,67.6,65.0,29.88,SW,215,0.0,-999.0,92,-99.99,,,0.34,weatherlink.com 1.10,2013-08-27 02:23:00,
2013-08-26 22:38:00,67.8,66.0,29.87,SW,215,0.0,-999.0,92,-99.99,,,0.34,weatherlink.com 1.10,2013-08-27 02:38:00,
2013-08-26 22:53:00,67.8,66.0,29.87,SW,215,0.0,-999.0,92,-99.99,,,0.36,weatherlink.com 1.10,2013-08-27 02:53:00,
2013-08-26 23:08:00,67.9,66.0,29.88,SW,215,0.0,-999.0,92,-99.99,,,0.42,weatherlink.com 1.10,2013-08-27 03:08:00,
2013-08-26 23:23:00,67.9,66.0,29.86,ENE,59,0.0,-999.0,92,-99.99,,,0.49,weatherlink.com 1.10,2013-08-27 03:23:00,
2013-08-26 23:38:00,67.9,66.0,29.86,ENE,59,0.0,-999.0,93,-99.99,,,0.51,weatherlink.com 1.10,2013-08-27 03:38:00,
2013-08-26 23:53:00,67.9,66.0,29.84,ENE,59,0.0,-999.0,93,-99.99,,,0.51,weatherlink.com 1.10,2013-08-27 03:53:00,